Time,TemperatureF,DewpointF,PressureIn,WindDirection,WindDirectionDegrees,WindSpeedMPH,WindSpeedGustMPH,Humidity,HourlyPrecipIn,Conditions,Clouds,dailyrainin,SoftwareType,DateUTC
2013-03-13 00:02:00,46.8,43.0,30.20,North,5,0.0,-999.0,87,-99.99,,,0.00,weatherlink.com 1.10,2013-03-13 05:02:00,
2013-03-13 00:17:00,46.5,43.0,30.20,North,5,0.0,-999.0,87,-99.99,,,0.00,weatherlink.com 1.10,2013-03-13 05:17:00,
2013-03-13 00:33:00,46.1,43.0,30.20,North,5,0.0,-999.0,87,-99.99,,,0.00,weatherlink.com 1.10,2013-03-13 05:33:00,
2013-03-13 00:48:00,45.8,43.0,30.20,North,5,0.0,-999.0,88,-99.99,,,0.00,weatherlink.com 1.10,2013-03-13 05:48:00,
2013-03-13 01:03:00,45.5,42.0,30.21,North,5,0.0,-999.0,88,-99.99,,,0.00,weatherlink.com 1.10,2013-03-13 06:03:00,
2013-03-13 01:19:00,45.3,42.0,30.21,North,5,0.0,-999.0,88,-99.99,,,0.00,weatherlink.com 1.10,2013-03-13 06:19:00,
2013-03-13 01:33:00,45.1,42.0,30.21,North,5,0.0,-999.0,88,-99.99,,,0.00,weatherlink.com 1.10,2013-03-13 06:33:00,
2013-03-13 01:48:00,45.0,42.0,30.22,North,5,0.0,-999.0,88,-99.99,,,0.00,weatherlink.com 1.10,2013-03-13 06:48:00,
2013-03-13 02:02:00,44.8,42.0,30.21,North,5,0.0,-999.0,88,-99.99,,,0.00,weatherlink.com 1.10,2013-03-13 07:02:00,
2013-03-13 02:17:00,44.6,41.0,30.21,North,5,0.0,-999.0,88,-99.99,,,0.00,weatherlink.com 1.10,2013-03-13 07:17:00,
2013-03-13 02:32:00,44.5,41.0,30.21,North,5,0.0,-999.0,87,-99.99,,,0.00,weatherlink.com 1.10,2013-03-13 07:32:00,
2013-03-13 02:47:00,44.5,40.0,30.21,North,5,0.0,-999.0,85,-99.99,,,0.00,weatherlink.com 1.10,2013-03-13 07:47:00,
2013-03-13 03:03:00,44.5,40.0,30.22,North,5,0.0,-999.0,85,-99.99,,,0.00,weatherlink.com 1.10,2013-03-13 08:03:00,
2013-03-13 03:17:00,44.3,40.0,30.22,North,5,0.0,-999.0,86,-99.99,,,0.00,weatherlink.com 1.10,2013-03-13 08:17:00,
2013-03-13 03:32:00,44.0,40.0,30.23,North,5,0.0,-999.0,86,-99.99,,,0.00,weatherlink.com 1.10,2013-03-13 08:32:00,
2013-03-13 03:48:00,43.6,40.0,30.23,North,5,0.0,-999.0,86,-99.99,,,0.00,weatherlink.com 1.10,2013-03-13 08:48:00,
2013-03-13 04:03:00,43.2,40.0,30.23,North,5,0.0,-999.0,87,-99.99,,,0.00,weatherlink.com 1.10,2013-03-13 09:03:00,
2013-03-13 04:18:00,42.9,40.0,30.24,North,5,0.0,-999.0,88,-99.99,,,0.00,weatherlink.com 1.10,2013-03-13 09:18:00,
2013-03-13 04:33:00,42.5,39.0,30.24,North,5,0.0,-999.0,88,-99.99,,,0.00,weatherlink.com 1.10,2013-03-13 09:33:00,
2013-03-13 04:48:00,42.2,39.0,30.24,North,5,0.0,-999.0,88,-99.99,,,0.00,weatherlink.com 1.10,2013-03-13 09:48:00,
2013-03-13 05:03:00,41.9,39.0,30.24,North,5,0.0,-999.0,89,-99.99,,,0.00,weatherlink.com 1.10,2013-03-13 10:03:00,
2013-03-13 05:18:00,41.6,39.0,30.25,North,5,0.0,-999.0,90,-99.99,,,0.00,weatherlink.com 1.10,2013-03-13 10:18:00,
2013-03-13 05:34:00,41.4,39.0,30.25,North,5,0.0,-999.0,91,-99.99,,,0.00,weatherlink.com 1.10,2013-03-13 10:34:00,
2013-03-13 05:48:00,41.3,39.0,30.26,North,5,0.0,-999.0,91,-99.99,,,0.00,weatherlink.com 1.10,2013-03-13 10:48:00,
2013-03-13 06:03:00,41.0,39.0,30.27,North,5,0.0,-999.0,92,-99.99,,,0.00,weatherlink.com 1.10,2013-03-13 11:03:00,
2013-03-13 06:18:00,40.9,39.0,30.27,North,5,0.0,-999.0,92,-99.99,,,0.00,weatherlink.com 1.10,2013-03-13 11:18:00,
2013-03-13 06:34:00,40.7,39.0,30.28,North,5,0.0,-999.0,92,-99.99,,,0.00,weatherlink.com 1.10,2013-03-13 11:34:00,
2013-03-13 06:48:00,40.6,39.0,30.28,North,5,0.0,-999.0,92,-99.99,,,0.00,weatherlink.com 1.10,2013-03-13 11:48:00,
2013-03-13 07:03:00,40.5,38.0,30.29,North,5,0.0,-999.0,92,-99.99,,,0.00,weatherlink.com 1.10,2013-03-13 12:03:00,
2013-03-13 07:18:00,40.4,39.0,30.29,North,5,0.0,-999.0,93,-99.99,,,0.00,weatherlink.com 1.10,2013-03-13 12:18:00,
2013-03-13 07:33:00,40.4,39.0,30.30,North,5,0.0,-999.0,93,-99.99,,,0.00,weatherlink.com 1.10,2013-03-13 12:33:00,
2013-03-13 07:48:00,40.7,39.0,30.30,North,5,0.0,-999.0,93,-99.99,,,0.00,weatherlink.com 1.10,2013-03-13 12:48:00,
2013-03-13 08:03:00,41.4,39.0,30.30,North,5,0.0,-999.0,92,-99.99,,,0.00,weatherlink.com 1.10,2013-03-13 13:03:00,
2013-03-13 08:19:00,42.8,40.0,30.31,North,5,0.0,-999.0,90,-99.99,,,0.00,weatherlink.com 1.10,2013-03-13 13:19:00,
2013-03-13 08:33:00,44.9,41.0,30.32,NNW,340,1.0,-999.0,87,-99.99,,,0.00,weatherlink.com 1.10,2013-03-13 13:33:00,
2013-03-13 08:49:00,47.3,42.0,30.32,NNW,342,0.0,-999.0,82,-99.99,,,0.00,weatherlink.com 1.10,2013-03-13 13:49:00,
2013-03-13 09:05:00,49.9,42.0,30.33,NW,325,0.0,-999.0,73,-99.99,,,0.00,weatherlink.com 1.10,2013-03-13 14:05:00,
2013-03-13 09:19:00,52.2,43.0,30.34,North,355,0.0,-999.0,70,-99.99,,,0.00,weatherlink.com 1.10,2013-03-13 14:19:00,
2013-03-13 09:34:00,53.7,42.0,30.34,North,349,2.0,-999.0,65,-99.99,,,0.00,weatherlink.com 1.10,2013-03-13 14:34:00,
2013-03-13 09:49:00,54.7,43.0,30.35,NNW,331,2.0,-999.0,64,-99.99,,,0.00,weatherlink.com 1.10,2013-03-13 14:49:00,
2013-03-13 10:04:00,55.9,43.0,30.35,North,360,6.0,-999.0,62,-99.99,,,0.00,weatherlink.com 1.10,2013-03-13 15:04:00,
2013-03-13 10:19:00,57.6,42.0,30.35,NNW,329,4.0,-999.0,57,-99.99,,,0.00,weatherlink.com 1.10,2013-03-13 15:19:00,
2013-03-13 10:34:00,58.4,42.0,30.35,ENE,64,2.0,-999.0,54,-99.99,,,0.00,weatherlink.com 1.10,2013-03-13 15:34:00,
2013-03-13 10:49:00,59.7,41.0,30.36,NNW,336,4.0,-999.0,50,-99.99,,,0.00,weatherlink.com 1.10,2013-03-13 15:49:00,
2013-03-13 11:06:00,60.7,40.0,30.36,NNE,15,2.0,-999.0,46,-99.99,,,0.00,weatherlink.com 1.10,2013-03-13 16:06:00,
2013-03-13 11:20:00,61.3,40.0,30.36,NNW,334,2.0,-999.0,45,-99.99,,,0.00,weatherlink.com 1.10,2013-03-13 16:20:00,
2013-03-13 11:35:00,62.7,37.0,30.36,NNW,339,4.0,-999.0,38,-99.99,,,0.00,weatherlink.com 1.10,2013-03-13 16:35:00,
2013-03-13 11:50:00,63.4,37.0,30.35,NW,318,0.0,-999.0,38,-99.99,,,0.00,weatherlink.com 1.10,2013-03-13 16:50:00,
2013-03-13 12:20:00,65.4,38.0,30.34,ENE,64,0.0,-999.0,36,-99.99,,,0.00,weatherlink.com 1.10,2013-03-13 17:20:00,
2013-03-13 12:36:00,65.9,37.0,30.33,NW,320,2.0,-999.0,34,-99.99,,,0.00,weatherlink.com 1.10,2013-03-13 17:36:00,
2013-03-13 12:51:00,66.8,33.0,30.32,NW,316,0.0,-999.0,29,-99.99,,,0.00,weatherlink.com 1.10,2013-03-13 17:51:00,
2013-03-13 13:05:00,67.4,36.0,30.32,NNW,347,1.0,-999.0,32,-99.99,,,0.00,weatherlink.com 1.10,2013-03-13 18:05:00,
2013-03-13 13:20:00,67.3,34.0,30.31,NNW,336,2.0,-999.0,29,-99.99,,,0.00,weatherlink.com 1.10,2013-03-13 18:20:00,
2013-03-13 13:35:00,67.8,35.0,30.30,NNW,328,5.0,-999.0,30,-99.99,,,0.00,weatherlink.com 1.10,2013-03-13 18:35:00,
2013-03-13 13:50:00,68.3,36.0,30.29,NW,315,2.0,-999.0,30,-99.99,,,0.00,weatherlink.com 1.10,2013-03-13 18:50:00,
2013-03-13 14:05:00,68.6,35.0,30.29,North,355,6.0,-999.0,29,-99.99,,,0.00,weatherlink.com 1.10,2013-03-13 19:05:00,
2013-03-13 14:20:00,68.6,34.0,30.29,NNW,348,0.0,-999.0,28,-99.99,,,0.00,weatherlink.com 1.10,2013-03-13 19:20:00,
2013-03-13 14:35:00,68.3,33.0,30.28,WNW,286,0.0,-999.0,27,-99.99,,,0.00,weatherlink.com 1.10,2013-03-13 19:35:00,
2013-03-13 14:51:00,68.2,31.0,30.28,NNW,341,5.0,-999.0,25,-99.99,,,0.00,weatherlink.com 1.10,2013-03-13 19:51:00,
2013-03-13 15:05:00,68.4,32.0,30.27,NNW,345,6.0,-999.0,26,-99.99,,,0.00,weatherlink.com 1.10,2013-03-13 20:05:00,
2013-03-13 15:20:00,69.0,31.0,30.27,NNW,342,1.0,-999.0,24,-99.99,,,0.00,weatherlink.com 1.10,2013-03-13 20:20:00,
2013-03-13 15:35:00,68.9,33.0,30.27,North,5,8.0,-999.0,27,-99.99,,,0.00,weatherlink.com 1.10,2013-03-13 20:35:00,
2013-03-13 15:50:00,68.2,33.0,30.27,NNW,346,6.0,-999.0,27,-99.99,,,0.00,weatherlink.com 1.10,2013-03-13 20:50:00,
2013-03-13 16:06:00,67.5,31.0,30.27,NW,325,5.0,-999.0,26,-99.99,,,0.00,weatherlink.com 1.10,2013-03-13 21:06:00,
2013-03-13 16:20:00,68.0,32.0,30.26,NW,326,0.0,-999.0,26,-99.99,,,0.00,weatherlink.com 1.10,2013-03-13 21:20:00,
2013-03-13 16:35:00,68.2,33.0,30.26,NW,318,5.0,-999.0,27,-99.99,,,0.00,weatherlink.com 1.10,2013-03-13 21:35:00,
2013-03-13 16:50:00,67.2,31.0,30.26,NNW,338,0.0,-999.0,26,-99.99,,,0.00,weatherlink.com 1.10,2013-03-13 21:50:00,
2013-03-13 17:05:00,67.0,30.0,30.26,North,360,4.0,-999.0,25,-99.99,,,0.00,weatherlink.com 1.10,2013-03-13 22:05:00,
2013-03-13 17:20:00,66.8,28.0,30.26,NW,321,6.0,-999.0,23,-99.99,,,0.00,weatherlink.com 1.10,2013-03-13 22:20:00,
2013-03-13 17:36:00,65.7,28.0,30.26,North,355,6.0,-999.0,24,-99.99,,,0.00,weatherlink.com 1.10,2013-03-13 22:36:00,
2013-03-13 17:51:00,64.9,29.0,30.27,NW,321,5.0,-999.0,26,-99.99,,,0.00,weatherlink.com 1.10,2013-03-13 22:51:00,
2013-03-13 18:06:00,64.1,28.0,30.27,NW,306,0.0,-999.0,26,-99.99,,,0.00,weatherlink.com 1.10,2013-03-13 23:06:00,
2013-03-13 18:21:00,63.2,29.0,30.27,North,355,0.0,-999.0,28,-99.99,,,0.00,weatherlink.com 1.10,2013-03-13 23:21:00,
2013-03-13 18:36:00,62.1,28.0,30.28,NW,307,4.0,-999.0,28,-99.99,,,0.00,weatherlink.com 1.10,2013-03-13 23:36:00,
2013-03-13 18:51:00,61.3,30.0,30.28,NNW,338,0.0,-999.0,31,-99.99,,,0.00,weatherlink.com 1.10,2013-03-13 23:51:00,
2013-03-13 19:21:00,58.9,30.0,30.30,North,350,1.0,-999.0,33,-99.99,,,0.00,weatherlink.com 1.10,2013-03-14 00:21:00,
2013-03-13 19:36:00,57.3,28.0,30.30,North,355,0.0,-999.0,33,-99.99,,,0.00,weatherlink.com 1.10,2013-03-14 00:36:00,
2013-03-13 19:51:00,55.7,29.0,30.30,North,355,1.0,-999.0,36,-99.99,,,0.00,weatherlink.com 1.10,2013-03-14 00:51:00,
2013-03-13 20:06:00,54.9,29.0,30.30,NE,36,0.0,-999.0,37,-99.99,,,0.00,weatherlink.com 1.10,2013-03-14 01:06:00,
2013-03-13 20:21:00,53.9,29.0,30.30,NE,36,0.0,-999.0,39,-99.99,,,0.00,weatherlink.com 1.10,2013-03-14 01:21:00,
2013-03-13 20:36:00,52.8,28.0,30.31,NE,36,0.0,-999.0,39,-99.99,,,0.00,weatherlink.com 1.10,2013-03-14 01:36:00,
2013-03-13 20:51:00,51.4,31.0,30.31,NE,36,0.0,-999.0,45,-99.99,,,0.00,weatherlink.com 1.10,2013-03-14 01:51:00,
2013-03-13 21:06:00,50.5,30.0,30.32,NNE,31,0.0,-999.0,46,-99.99,,,0.00,weatherlink.com 1.10,2013-03-14 02:06:00,
2013-03-13 21:21:00,50.1,30.0,30.34,NW,309,0.0,-999.0,47,-99.99,,,0.00,weatherlink.com 1.10,2013-03-14 02:21:00,
2013-03-13 21:36:00,50.6,30.0,30.34,NNW,346,2.0,-999.0,46,-99.99,,,0.00,weatherlink.com 1.10,2013-03-14 02:36:00,
2013-03-13 21:51:00,51.2,30.0,30.35,NNW,338,0.0,-999.0,44,-99.99,,,0.00,weatherlink.com 1.10,2013-03-14 02:51:00,
2013-03-13 22:21:00,50.5,29.0,30.36,NNW,338,0.0,-999.0,43,-99.99,,,0.00,weatherlink.com 1.10,2013-03-14 03:21:00,
2013-03-13 22:36:00,50.2,29.0,30.36,NNE,21,0.0,-999.0,44,-99.99,,,0.00,weatherlink.com 1.10,2013-03-14 03:36:00,
2013-03-13 23:07:00,49.2,29.0,30.37,North,5,0.0,-999.0,45,-99.99,,,0.00,weatherlink.com 1.10,2013-03-14 04:07:00,
2013-03-13 23:21:00,48.7,28.0,30.37,North,355,0.0,-999.0,45,-99.99,,,0.00,weatherlink.com 1.10,2013-03-14 04:21:00,
2013-03-13 23:37:00,48.4,28.0,30.37,NNW,348,0.0,-999.0,46,-99.99,,,0.00,weatherlink.com 1.10,2013-03-14 04:37:00,
2013-03-13 23:52:00,47.8,29.0,30.37,NNW,348,0.0,-999.0,48,-99.99,,,0.00,weatherlink.com 1.10,2013-03-14 04:52:00,